TimeEDT,TemperatureF,Dew PointF,Humidity,Sea Level PressureIn,VisibilityMPH,Wind Direction,Wind SpeedMPH,Gust SpeedMPH,PrecipitationIn,Events,Conditions,WindDirDegrees,DateUTC
12:53 AM,66.9,62.1,84,30.16,8.0,Calm,Calm,-,N/A,,Clear,0,2013-08-21 04:53:00
1:53 AM,66.0,62.1,87,30.15,7.0,Calm,Calm,-,N/A,,Clear,0,2013-08-21 05:53:00
2:53 AM,64.9,62.1,90,30.15,6.0,Calm,Calm,-,N/A,,Clear,0,2013-08-21 06:53:00
3:53 AM,64.0,61.0,90,30.14,6.0,Calm,Calm,-,N/A,,Clear,0,2013-08-21 07:53:00
4:53 AM,63.0,61.0,93,30.14,4.0,Calm,Calm,-,N/A,,Clear,0,2013-08-21 08:53:00
5:53 AM,62.1,61.0,96,30.15,4.0,Calm,Calm,-,N/A,,Mostly Cloudy,0,2013-08-21 09:53:00
6:53 AM,62.1,61.0,96,30.16,6.0,Calm,Calm,-,N/A,,Clear,0,2013-08-21 10:53:00
7:53 AM,64.9,63.0,93,30.17,6.0,Calm,Calm,-,N/A,,Clear,0,2013-08-21 11:53:00
8:53 AM,71.1,64.0,78,30.18,4.0,Calm,Calm,-,N/A,,Haze,0,2013-08-21 12:53:00
9:53 AM,75.0,64.9,71,30.18,6.0,SSW,4.6,-,N/A,,Haze,200,2013-08-21 13:53:00
11:53 AM,80.1,64.9,60,30.17,9.0,Variable,5.8,-,N/A,,Mostly Cloudy,0,2013-08-21 15:53:00
12:53 PM,82.0,64.9,56,30.16,10.0,Calm,Calm,-,N/A,,Mostly Cloudy,0,2013-08-21 16:53:00
1:53 PM,84.0,64.9,53,30.13,10.0,Variable,3.5,-,N/A,,Scattered Clouds,0,2013-08-21 17:53:00
2:53 PM,81.0,66.0,60,30.11,10.0,SSE,10.4,-,N/A,,Overcast,160,2013-08-21 18:53:00
3:33 PM,80.6,64.4,58,30.11,1.8,South,8.1,-,N/A,,Haze,190,2013-08-21 19:33:00
3:53 PM,80.1,66.0,62,30.10,10.0,South,6.9,-,N/A,,Clear,180,2013-08-21 19:53:00
4:53 PM,79.0,66.9,66,30.09,10.0,South,8.1,-,N/A,,Clear,180,2013-08-21 20:53:00
5:53 PM,80.1,68.0,67,30.10,10.0,South,9.2,-,N/A,,Clear,170,2013-08-21 21:53:00
6:53 PM,77.0,64.9,66,30.12,10.0,WSW,15.0,-,N/A,,Scattered Clouds,240,2013-08-21 22:53:00
7:53 PM,70.0,60.1,71,30.08,10.0,NW,4.6,-,0.00,,Clear,320,2013-08-21 23:53:00
8:53 PM,69.1,59.0,70,30.09,10.0,SSW,6.9,-,N/A,,Clear,200,2013-08-22 00:53:00
9:53 PM,70.0,61.0,73,30.09,10.0,SE,4.6,-,N/A,,Clear,140,2013-08-22 01:53:00
10:53 PM,69.1,62.1,78,30.11,10.0,Calm,Calm,-,N/A,,Clear,0,2013-08-22 02:53:00
11:53 PM,66.0,62.1,87,30.12,10.0,Calm,Calm,-,N/A,,Clear,0,2013-08-22 03:53:00